Bradford, PA

1:39 PM EST on December 06, 2019 (GMT -0500)
Bradford Regional

Weather History for KBFD - November, 2019

Change the Weather History Date:

Saturday, November 16, 2019

  Actual Average Record
Temperature  
Mean Temperature 26 °F 37 °F  
Max Temperature 33 °F 45 °F 62 °F (1960)
Min Temperature 19 °F 29 °F 2 °F (1967)
Degree Days  
Heating Degree Days 39 23  
Month to date heating degree days 543 333  
Since 1 July heating degree days 1202 1326  
Cooling Degree Days 0 0  
Month to date cooling degree days 0 0  
Year to date cooling degree days 283 193  
Moisture  
Dew Point 9 °F    
Average Humidity 51    
Maximum Humidity 75    
Minimum Humidity 27    
Precipitation  
Precipitation 0.00 in 0.13 in 1.40 in (2006)
Month to date precipitation 0.69 1.90  
Year to date precipitation 41.59 39.20  
Sea Level Pressure  
Sea Level Pressure 30.39 in    
Wind  
Wind Speed 7 mph ()    
Max Wind Speed 17 mph    
Max Gust Speed 23 mph    
Visibility 10.0 miles    
Events      
T = Trace of Precipitation, MM = Missing Value Source: Averaged Metar Reports

Daily Weather History Graph

Daily Weather History Graph

Search for Another Location

Airport or City:

Astronomy

Nov. 16, 2019 Rise Set
Actual Time 7:04 AM EST 4:53 PM EST
Civil Twilight 6:34 AM EST 5:23 PM EST
Nautical Twilight 6:01 AM EST 5:56 PM EST
Astronomical Twilight 5:28 AM EST 6:29 PM EST
Moon 8:22 PM EST (11/16) 10:58 AM EST (11/16)
Length of Visible Light 10h 48m
Length of Day
9h 48m
Waning Gibbous, 82% of the Moon is Illuminated
Nov 16
Waning Gibbous
Nov 19
Last Quarter
Nov 26
New
Dec 4
First Quarter
Dec 12
Full

Hourly Weather History & Observations

Time (EST) Temp. Windchill Dew Point Humidity Pressure Visibility Wind Dir Wind Speed Gust Speed Precip Events Conditions
12:09 AM 28.9 °F 21.9 °F 21.9 °F 75% 30.28 in 10.0 mi North 6.9 mph - N/A   Mostly Cloudy
12:21 AM 28.9 °F 21.9 °F 21.9 °F 75% 30.28 in 10.0 mi North 6.9 mph - N/A   Mostly Cloudy
12:53 AM 28.9 °F 20.4 °F 21.9 °F 75% 30.34 in 10.0 mi NNE 9.2 mph - N/A   Overcast
1:53 AM 28.0 °F 18.6 °F 19.9 °F 72% 30.35 in 10.0 mi North 10.4 mph 18.4 mph N/A   Overcast
2:53 AM 27.0 °F 19.5 °F 17.1 °F 66% 30.35 in 10.0 mi NE 6.9 mph 17.3 mph N/A   Overcast
3:53 AM 26.1 °F 18.4 °F 17.1 °F 69% 30.36 in 10.0 mi NNE 6.9 mph - N/A   Overcast
4:53 AM 23.0 °F 13.9 °F 15.1 °F 72% 30.38 in 10.0 mi NE 8.1 mph 16.1 mph N/A   Scattered Clouds
5:53 AM 21.0 °F 10.6 °F 12.0 °F 68% 30.40 in 10.0 mi ENE 9.2 mph - N/A   Clear
6:53 AM 19.0 °F 10.0 °F 10.0 °F 68% 30.43 in 10.0 mi NE 6.9 mph - N/A   Clear
7:53 AM 19.9 °F 10.1 °F 10.0 °F 65% 30.46 in 10.0 mi East 8.1 mph - N/A   Clear
8:53 AM 21.9 °F 11.7 °F 10.9 °F 63% 30.47 in 10.0 mi East 9.2 mph - N/A   Clear
9:53 AM 25.0 °F 14.2 °F 9.0 °F 51% 30.47 in 10.0 mi East 11.5 mph 21.9 mph N/A   Clear
10:53 AM 28.0 °F 18.1 °F 8.1 °F 43% 30.47 in 10.0 mi East 11.5 mph 20.7 mph N/A   Clear
11:53 AM 30.0 °F 21.7 °F 7.0 °F 38% 30.44 in 10.0 mi ENE 9.2 mph 19.6 mph N/A   Clear
12:53 PM 30.9 °F 22.2 °F 3.9 °F 32% 30.41 in 10.0 mi ESE 10.4 mph - N/A   Clear
1:53 PM 32.0 °F 23.0 °F 3.0 °F 29% 30.38 in 10.0 mi ENE 11.5 mph 18.4 mph N/A   Clear
2:53 PM 33.1 °F 26.1 °F 3.0 °F 28% 30.37 in 10.0 mi East 8.1 mph - N/A   Clear
3:53 PM 32.0 °F 23.0 °F 1.9 °F 28% 30.38 in 10.0 mi East 11.5 mph - N/A   Clear
4:53 PM 30.0 °F 21.7 °F 3.9 °F 33% 30.39 in 10.0 mi East 9.2 mph - N/A   Clear
5:53 PM 28.9 °F 22.8 °F 3.0 °F 33% 30.40 in 10.0 mi East 5.8 mph - N/A   Clear
6:53 PM 27.0 °F 21.6 °F 3.0 °F 36% 30.41 in 10.0 mi East 4.6 mph - N/A   Clear
7:53 PM 26.1 °F 19.4 °F 3.0 °F 37% 30.41 in 10.0 mi East 5.8 mph - N/A   Clear
8:53 PM 25.0 °F 16.3 °F 3.0 °F 39% 30.39 in 10.0 mi ESE 8.1 mph - N/A   Clear
9:53 PM 24.1 °F 17.0 °F 3.0 °F 40% 30.38 in 10.0 mi ESE 5.8 mph - N/A   Clear
10:53 PM 24.1 °F 15.2 °F 3.9 °F 42% 30.35 in 10.0 mi ESE 8.1 mph - N/A   Clear
11:53 PM 21.9 °F 13.4 °F 3.9 °F 46% 30.33 in 10.0 mi ESE 6.9 mph - N/A   Clear